Location: Unspecified
(0.0000°N, 0.0000°E)
Time: 02:24:58
(UTC+00:00)

ISS - Pass Details

Date: 12 September 2018
Orbit: 408 x 411 km, 51.6° (Epoch: 23 March)

Event Time Altitude Azimuth Distance (km) Brightness Sun altitude
Rises 09:23:55 0° 296° (WNW) 2,326 -0.3 51.7°
Reaches altitude 10° 09:26:36 10° 272° (W) 1,472 -1.2 52.4°
Maximum altitude 09:28:39 15° 234° (SW) 1,191 -1.6 52.9°
Drops below altitude 10° 09:30:43 10° 195° (SSW) 1,481 -1.0 53.4°
Sets 09:33:26 0° 172° (S) 2,350 0.1 54.1°
